Zurück zum Katalog

STARLINK-36725

AktivKommunikationVLEO
NORAD 68285·PAYLOAD·🇺🇸 United States

Gestartet Mar 19, 2026 von Vandenberg Space Force Base

Loading…

Nächste Überflüge (nächste 24 Stunden)

TLE

AktuellSource: CelesTrak SupGP

Epoche: Sep 15, 2026, 04:05 UTC

1 68285C 26055Z   26258.17062500  .00039196  00000+0  11581-2 0  2584
2 68285  53.1561 156.6497 0001325  80.3879  23.8707 15.34368826    10

Verfolge STARLINK-36725 in Echtzeit mit AllMySat

Download on the App Store